{"data":{"norad_id":65754,"epoch":"2026-05-24T19:30:11.703744Z","epoch_age_seconds":94298,"freshness":"FRESH","line1":"1 65754U 25216W   26144.81263546  .00008131  00000+0  28620-3 0  9998","line2":"2 65754  53.1599 338.9291 0001082  83.9017 276.2108 15.30215819 38164","mean_motion":15.30215819,"eccentricity":0.0001082,"inclination_deg":53.1599,"raan_deg":338.9291,"arg_perigee_deg":83.9017,"mean_anomaly_deg":276.2108,"bstar":0.0002862,"rev_number":3816,"period_min":94.104372868204,"perigee_km":474.42630956024,"apogee_km":475.909364727,"semimajor_km":6853.3048371436,"source":"CELESTRAK","updated_at":"2026-05-25T13:38:20.933764Z"}}